Warwick, RI

9:29 AM EST on December 03, 2016 (GMT -0500)
Green State

Weather History for KPVD - December, 2011

Change the Weather History Date:

Thursday, December 15, 2011

  Actual Average Record
Temperature  
Mean Temperature 47 °F 34 °F  
Max Temperature 54 °F 42 °F 64 °F (2015)
Min Temperature 40 °F 26 °F 6 °F (1904)
Degree Days  
Heating Degree Days 18 31  
Month to date heating degree days 347 423  
Since 1 July heating degree days 1188 1498  
Cooling Degree Days 0 0  
Month to date cooling degree days 0 0  
Year to date cooling degree days 921 744  
Moisture  
Dew Point 41 °F    
Average Humidity 81    
Maximum Humidity 96    
Minimum Humidity 65    
Precipitation  
Precipitation 0.12 in 0.14 in 1.58 in (1981)
Month to date precipitation 2.67 2.22  
Year to date precipitation 55.43 45.18  
Snow  
Snow 0.00 in 0.30 in 8.20 in (1916)
Month to date snowfall T 3.6  
Since 1 July snowfall 2.3 5.1  
Snow Depth 0.00 in    
Sea Level Pressure  
Sea Level Pressure 30.03 in    
Wind  
Wind Speed 14 mph (SSW)    
Max Wind Speed 28 mph    
Max Gust Speed 37 mph    
Visibility 10 miles    
Events Rain    
T = Trace of Precipitation, MM = Missing Value Source: NWS Daily Summary

Daily Weather History Graph

Daily Weather History Graph

Search for Another Location

Airport or City:

Trip Planner

Search our weather history database for the weather conditions in past years. The results will help you decide how hot, cold, wet, or windy it might be!

Date:

Astronomy

Dec. 15, 2011 Rise Set
Actual Time 7:05 AM EST 4:15 PM EST
Civil Twilight 6:34 AM EST 4:47 PM EST
Nautical Twilight 5:59 AM EST 5:22 PM EST
Astronomical Twilight 5:25 AM EST 5:56 PM EST
Moon 9:42 PM EST (12/15) 10:16 AM EST (12/15)
Length of Visible Light 10h 13m
Length of Day
9h 10m
Waning Gibbous, 75% of the Moon is Illuminated
Dec 15
Waning Gibbous
Dec 17
Last Quarter
Dec 24
New
Jan 1
First Quarter
Jan 9
Full

Hourly Weather History & Observations

Time (EST) Temp. Windchill Dew Point Humidity Pressure Visibility Wind Dir Wind Speed Gust Speed Precip Events Conditions
12:51 AM 39.9 °F 34.5 °F 30.0 °F 68% 30.33 in 10.0 mi SE 8.1 mph - N/A   Overcast
1:51 AM 41.0 °F 38.0 °F 30.9 °F 67% 30.32 in 10.0 mi SSE 4.6 mph - N/A   Overcast
2:51 AM 42.8 °F 37.0 °F 32.0 °F 66% 30.28 in 10.0 mi SSE 10.4 mph - N/A   Overcast
3:51 AM 43.0 °F 38.2 °F 34.0 °F 71% 30.26 in 10.0 mi South 8.1 mph - N/A   Overcast
4:51 AM 43.0 °F 38.8 °F 35.1 °F 74% 30.25 in 10.0 mi South 6.9 mph - N/A   Overcast
5:51 AM 44.1 °F 39.5 °F 35.1 °F 71% 30.24 in 10.0 mi South 8.1 mph - N/A   Overcast
6:51 AM 45.0 °F 40.1 °F 37.0 °F 74% 30.23 in 10.0 mi South 9.2 mph - N/A   Overcast
7:09 AM 44.6 °F 39.2 °F 37.4 °F 76% 30.21 in 10.0 mi South 10.4 mph - N/A   Overcast
7:16 AM 44.6 °F 39.2 °F 37.4 °F 76% 30.21 in 10.0 mi South 10.4 mph - N/A   Overcast
7:51 AM 46.0 °F 41.4 °F 39.0 °F 76% 30.20 in 10.0 mi South 9.2 mph - 0.00 in Rain Light Rain
8:51 AM 48.0 °F - 41.0 °F 77% 30.18 in 10.0 mi South 10.4 mph - 0.00 in   Overcast
9:51 AM 50.0 °F - 43.0 °F 77% 30.15 in 10.0 mi South 13.8 mph - N/A   Overcast
10:40 AM 51.8 °F - 42.8 °F 71% 30.09 in 10.0 mi South 16.1 mph 24.2 mph 0.00 in   Overcast
10:51 AM 52.0 °F - 43.0 °F 71% 30.08 in 10.0 mi South 17.3 mph 26.5 mph 0.00 in   Overcast
11:51 AM 53.1 °F - 43.0 °F 69% 30.02 in 10.0 mi SSW 21.9 mph 29.9 mph N/A   Overcast
12:51 PM 54.0 °F - 43.0 °F 66% 29.97 in 10.0 mi SSW 23.0 mph 34.5 mph N/A   Overcast
1:51 PM 54.0 °F - 42.1 °F 64% 29.96 in 10.0 mi SSW 17.3 mph 32.2 mph N/A   Overcast
2:51 PM 54.0 °F - 43.0 °F 66% 29.93 in 10.0 mi SSW 17.3 mph 24.2 mph 0.01 in   Overcast
3:51 PM 54.0 °F - 43.0 °F 66% 29.88 in 10.0 mi SSW 18.4 mph 29.9 mph N/A   Overcast
4:51 PM 54.0 °F - 44.1 °F 69% 29.86 in 10.0 mi SSW 15.0 mph 23.0 mph N/A   Overcast
5:51 PM 54.0 °F - 45.0 °F 72% 29.83 in 10.0 mi SSW 18.4 mph 29.9 mph N/A   Overcast
6:26 PM 53.6 °F - 46.4 °F 77% 29.79 in 10.0 mi SSW 18.4 mph 29.9 mph N/A   Overcast
6:51 PM 53.6 °F - 46.4 °F 77% 29.81 in 10.0 mi SW 16.1 mph 25.3 mph N/A   Overcast
7:51 PM 52.0 °F - 48.9 °F 89% 29.80 in 5.0 mi SW 15.0 mph 26.5 mph 0.03 in Rain Rain
8:51 PM 53.1 °F - 48.9 °F 86% 29.78 in 10.0 mi SW 17.3 mph 25.3 mph 0.03 in Rain Light Rain
9:51 PM 53.1 °F - 48.9 °F 86% 29.76 in 6.0 mi SW 16.1 mph 25.3 mph 0.01 in Rain Light Rain
10:51 PM 52.0 °F - 50.0 °F 93% 29.76 in 7.0 mi SW 13.8 mph - 0.04 in Rain Light Rain
11:51 PM 52.0 °F - 48.9 °F 89% 29.75 in 10.0 mi WSW 11.5 mph - 0.00 in   Mostly Cloudy